sim
Sign-in with your pilot id or email,
or register
Callsign
Passwort

Schedule Details

Flight Number: RYR1246 (2)
Departure: Athens Eleftherios Venizelos (LGAV) at 16:10
Arrival: Bratislava M. R. Stefanik Airport (LZIB) at 18:25
Route: Ryanair Passenger Schedule. Enter filed route here before submitting Pirep.

Weather Information
Getting current METAR information for LGAV 310720Z VRB02KT 9999 FEW030 21/11 Q1014 NOSIG
Getting current METAR information for LZIB 310700Z 36007KT 9999 -RA FEW023 BKN053 BKN070 11/07 Q1015 WS R31 TEMPO RA

Schedule Frequency

Route Map